Location: Chillicothe
(39.7950°N, 93.5520°W)
Time: 10:44:36
(UTC-05:00)

Tiros 1 despin weight - Visible Passes

Search period start: 19 October 2019 00:00
Search period end: 29 October 2019 00:00
Orbit: 593 x 643 km, 48.2° (Epoch: 19 October)

Date Brightness Start Highest point End Pass type
(mag) Time Alt. Az. Time Alt. Az. Time Alt. Az.
19 Oct ? 04:58:56 27° NNE 04:58:56 27° NNE 05:02:07 10° ENE visible
19 Oct ? 06:36:02 10° NW 06:40:27 39° NNE 06:44:49 10° E visible
20 Oct ? 05:14:54 29° N 05:14:58 29° N 05:19:05 10° ENE visible
20 Oct ? 06:52:37 10° NW 06:57:14 55° NNE 07:01:49 10° ESE visible
21 Oct ? 05:30:53 30° NNW 05:31:54 34° NNE 05:36:10 10° ENE visible
22 Oct ? 04:09:50 13° NE 04:09:50 13° NE 04:10:28 10° ENE visible
22 Oct ? 05:46:55 30° NNW 05:48:45 44° NNE 05:53:14 10° E visible
23 Oct ? 04:25:56 18° ENE 04:25:56 18° ENE 04:27:30 10° ENE visible
23 Oct ? 06:03:00 27° NW 06:05:30 67° NNE 06:10:09 10° ESE visible
24 Oct ? 04:42:05 26° ENE 04:42:05 26° ENE 04:44:35 10° E visible
24 Oct ? 06:19:10 23° WNW 06:22:06 74° SW 06:26:45 10° SE visible
25 Oct ? 04:58:19 39° ENE 04:58:19 39° ENE 05:01:36 10° E visible
25 Oct ? 06:35:25 17° WNW 06:38:34 40° SW 06:42:55 10° SSE visible
26 Oct ? 05:14:40 56° ESE 05:14:40 56° ESE 05:18:24 10° ESE visible
26 Oct ? 06:51:45 12° W 06:54:54 21° SW 06:58:23 10° S visible
27 Oct ? 05:31:06 49° S 05:31:06 49° S 05:34:51 10° SE visible
28 Oct ? 05:47:37 28° SSW 05:47:37 28° SSW 05:50:45 10° SSE visible
